Location: Baller�as
(41.9020°N, 0.1554°W)
Time: 00:52:47
(UTC+00:00)

CENTAUR R/B - Pass Details

Date: 10 August 2020
Orbit: 754 x 1434 km, 63.5° (Epoch: 17 September)

Event Time Altitude Azimuth Distance (km) Brightness Sun altitude
Exits shadow 23:01:29 - 250° (WSW) 3,297 5.3 -31.0°
Reaches altitude 10° 23:03:38 10° 258° (WSW) 2,597 4.8 -31.1°
Maximum altitude 23:09:05 33° 322° (NW) 1,640 4.1 -31.4°
Drops below altitude 10° 23:15:25 10° 24° (NNE) 3,036 5.6 -31.7°
Sets 23:18:42 0° 34° (NE) 4,116 6.3 -31.9°
